User: anonymous   Login
Location: Ellerstadt
(49.4644°N, 8.2615°E)
Time: 03:58:03
(UTC+00:00)
Language:

PSLV R/B - Orbit

View from above orbital plane
View from above orbital plane
View from above satellite
View from above satellite

Ground track
Ground track

The orbit data is extracted from the following two-line orbital elements,

1 36800U 10035F   21125.47096367  .00000194  00000-0  23571-4 0  9995
2 36800  98.1614 321.9817 0021529 339.2938  20.7407 14.94919748588732
Epoch (UTC): 05 May 2021 11:18:11
Eccentricity: 0.0021529
inclination: 98.1614°
perigee height: 567 km
apogee height: 597 km
right ascension of ascending node: 321.9817°
argument of perigee: 339.2938°
revolutions per day: 14.94919748
mean anomaly at epoch: 20.7407°
orbit number at epoch: 58873

The dashed part of the orbit path shows where the satellite is in the earth's shadow,  

DLR